Weather History for Klamath Falls, OR

Change the Weather History Date:

Sunday, February 17, 2013

  Actual Average Record
Temperature  
Mean Temperature 31 °F 35 °F  
Max Temperature 43 °F 45 °F 62 °F (1977)
Min Temperature 18 °F 24 °F 8 °F (1990)
Degree Days  
Heating Degree Days 34 30  
Month to date heating degree days 523 540  
Since 1 July heating degree days 4320 4520  
Cooling Degree Days 0 0  
Month to date cooling degree days 0 0  
Year to date cooling degree days 0 0  
Moisture  
Dew Point 19 °F    
Average Humidity 66    
Maximum Humidity 88    
Minimum Humidity 24    
Precipitation  
Precipitation 0.00 in 0.07 in 0.81 in (2004)
Month to date precipitation 0.11 1.17  
Year to date precipitation 0.55 3.02  
Sea Level Pressure  
Sea Level Pressure 30.12 in    
Wind  
Wind Speed 2 mph (North)    
Max Wind Speed 10 mph    
Max Gust Speed 13 mph    
Visibility 10 miles    
Events      
T = Trace of Precipitation, MM = Missing Value Source: NWS Daily Summary

Daily Weather History Graph

Daily Weather History Graph

Search for Another Location

Airport:

Trip Planner

Search our weather history database for the weather conditions in past years. The results will help you decide how hot, cold, wet, or windy it might be!

Date:

Astronomy

Feb. 17, 2013 Rise Set
Actual Time 6:59 AM PST 5:42 PM PST
Civil Twilight 6:31 AM PST 6:11 PM PST
Nautical Twilight 5:58 AM PST 6:43 PM PST
Astronomical Twilight 5:26 AM PST 7:16 PM PST
Moon 10:47 AM PST (2/17) 12:51 AM PST (2/17)
Length of Visible Light 11h 40m
Length of Day
10h 42m
Waxing Crescent, 50% of the Moon is Illuminated
Feb 17
Waxing Crescent
Feb 17
First Quarter
Feb 25
Full
Mar 4
Last Quarter
Mar 11
New

Hourly Weather History & Observations

Time (PST) Temp. Windchill Dew Point Humidity Pressure Visibility Wind Dir Wind Speed Gust Speed Precip Events Conditions
12:53 AM 28.0 °F 24.2 °F 21.0 °F 75% 30.14 in 10.0 mi NE 3.5 mph - N/A   Clear
1:53 AM 28.9 °F 21.9 °F 21.0 °F 72% 30.13 in 10.0 mi NW 6.9 mph - N/A   Clear
2:53 AM 28.0 °F 24.2 °F 19.9 °F 72% 30.13 in 10.0 mi NW 3.5 mph - N/A   Clear
3:53 AM 24.1 °F 18.2 °F 19.0 °F 81% 30.13 in 10.0 mi WNW 4.6 mph - N/A   Clear
4:53 AM 24.1 °F 17.0 °F 19.0 °F 81% 30.15 in 10.0 mi WNW 5.8 mph - N/A   Clear
5:53 AM 19.0 °F 13.9 °F 16.0 °F 88% 30.17 in 10.0 mi East 3.5 mph - N/A   Clear
6:01 AM 19.4 °F - 17.6 °F 93% 30.12 in 10.0 mi Calm Calm - N/A   Clear
6:53 AM 19.0 °F 13.9 °F 16.0 °F 88% 30.18 in 10.0 mi East 3.5 mph - N/A   Clear
7:53 AM 23.0 °F - 19.9 °F 88% 30.18 in 10.0 mi Calm Calm - N/A   Clear
8:53 AM 28.0 °F - 23.0 °F 81% 30.18 in 10.0 mi Calm Calm - N/A   Clear
9:53 AM 34.0 °F 31.0 °F 21.9 °F 61% 30.17 in 10.0 mi North 3.5 mph - N/A   Clear
10:53 AM 36.0 °F 31.1 °F 18.0 °F 48% 30.17 in 10.0 mi NE 5.8 mph - N/A   Partly Cloudy
11:53 AM 37.0 °F - 16.0 °F 42% 30.15 in 10.0 mi Calm Calm - N/A   Partly Cloudy
12:53 PM 39.0 °F 34.0 °F 19.0 °F 45% 30.12 in 10.0 mi West 6.9 mph - N/A   Partly Cloudy
1:53 PM 39.9 °F - 17.1 °F 40% 30.09 in 10.0 mi Calm Calm - N/A   Partly Cloudy
2:53 PM 41.0 °F 38.0 °F 17.1 °F 38% 30.08 in 10.0 mi SSE 4.6 mph - N/A   Partly Cloudy
3:53 PM 42.1 °F - 14.0 °F 32% 30.07 in 10.0 mi Calm Calm - N/A   Partly Cloudy
4:53 PM 42.1 °F - 9.0 °F 26% 30.06 in 10.0 mi Calm Calm - N/A   Scattered Clouds
5:53 PM 33.1 °F 28.7 °F 21.0 °F 61% 30.10 in 10.0 mi SSE 4.6 mph - N/A   Mostly Cloudy
6:53 PM 32.0 °F - 19.0 °F 59% 30.10 in 7.0 mi Calm Calm - N/A   Mostly Cloudy
7:53 PM 30.0 °F - 23.0 °F 75% 30.09 in 7.0 mi Calm Calm - N/A   Scattered Clouds
9:53 PM 28.0 °F - 21.9 °F 78% 30.06 in 7.0 mi Calm Calm - N/A   Scattered Clouds
10:53 PM 28.9 °F - 23.0 °F 78% 30.05 in 10.0 mi Calm Calm - N/A   Clear
11:53 PM 27.0 °F - 23.0 °F 85% 30.04 in 10.0 mi Calm Calm - N/A   Clear